Hourly Weather Bolshie Ploty

Today, 18 June, Friday

Time Temperature Precipitation Wind Pressure Humidity
00:00 +14°C° 0 mm 3 mps 748 mmHg 82%
01:00 +13°C° 0 mm 3 mps 748 mmHg 82%
02:00 +13°C° 0 mm 3 mps 748 mmHg 82%
03:00 +13°C° 0 mm 3 mps 748 mmHg 81%
04:00 +13°C° 0 mm 3 mps 748 mmHg 81%
05:00 +13°C° 0 mm 3 mps 748 mmHg 82%
06:00 +14°C° 0 mm 3 mps 748 mmHg 82%
07:00 +15°C° 0 mm 4 mps 749 mmHg 77%
08:00 +18°C° 0 mm 4 mps 749 mmHg 72%
09:00 +20°C° 0 mm 5 mps 749 mmHg 67%
10:00 +20°C° 0 mm 5 mps 749 mmHg 64%
11:00 +21°C° 0 mm 5 mps 749 mmHg 61%
12:00 +22°C° 0 mm 5 mps 749 mmHg 57%
13:00 +22°C° 0 mm 5 mps 749 mmHg 57%
14:00 +22°C° 0 mm 5 mps 749 mmHg 57%
15:00 +23°C° 0 mm 5 mps 749 mmHg 57%
16:00 +22°C° 0 mm 4 mps 749 mmHg 61%
17:00 +22°C° 0 mm 4 mps 749 mmHg 65%
18:00 +22°C° 0 mm 4 mps 749 mmHg 68%
19:00 +20°C° 0 mm 3 mps 749 mmHg 73%
20:00 +19°C° 0 mm 3 mps 749 mmHg 78%
21:00 +17°C° 0 mm 3 mps 749 mmHg 83%
22:00 +16°C° 0 mm 3 mps 749 mmHg 86%
23:00 +16°C° 0 mm 2 mps 749 mmHg 88%

Tomorrow, 19 June, Saturday

Time Temperature Precipitation Wind Pressure Humidity
00:00 +15°C° 0 mm 2 mps 749 mmHg 90%
01:00 +15°C° 0 mm 2 mps 749 mmHg 91%
02:00 +14°C° 0 mm 2 mps 750 mmHg 91%
03:00 +14°C° 0 mm 2 mps 750 mmHg 91%
04:00 +14°C° 0 mm 2 mps 750 mmHg 90%
05:00 +15°C° 0 mm 2 mps 750 mmHg 89%
06:00 +15°C° 0 mm 2 mps 750 mmHg 88%
07:00 +17°C° 0 mm 2 mps 750 mmHg 83%
08:00 +18°C° 0 mm 3 mps 750 mmHg 78%
09:00 +20°C° 0 mm 3 mps 750 mmHg 72%
10:00 +21°C° 0 mm 3 mps 750 mmHg 69%
11:00 +22°C° 0 mm 3 mps 750 mmHg 65%
12:00 +24°C° 0 mm 3 mps 749 mmHg 62%
13:00 +24°C° 0 mm 3 mps 749 mmHg 60%
14:00 +25°C° 0 mm 3 mps 749 mmHg 58%
15:00 +25°C° 0 mm 3 mps 749 mmHg 57%
16:00 +25°C° 0 mm 3 mps 748 mmHg 60%
17:00 +25°C° 0 mm 2 mps 748 mmHg 63%
18:00 +24°C° 0 mm 2 mps 748 mmHg 67%
19:00 +21°C° 0 mm 2 mps 748 mmHg 71%
20:00 +20°C° 0 mm 2 mps 748 mmHg 75%
21:00 +18°C° 0 mm 2 mps 748 mmHg 80%
22:00 +17°C° 0 mm 2 mps 748 mmHg 81%
23:00 +16°C° 0 mm 2 mps 748 mmHg 83%

Day after tomorrow, 20 June, Sunday

Time Temperature Precipitation Wind Pressure Humidity
00:00 +16°C° 0 mm 2 mps 748 mmHg 84%
01:00 +15°C° 0 mm 2 mps 748 mmHg 85%
02:00 +15°C° 0 mm 2 mps 748 mmHg 87%
03:00 +14°C° 0 mm 1 mps 748 mmHg 88%
04:00 +15°C° 0 mm 2 mps 748 mmHg 87%
05:00 +16°C° 0 mm 2 mps 748 mmHg 87%
06:00 +16°C° 0 mm 2 mps 748 mmHg 86%
07:00 +18°C° 0 mm 2 mps 748 mmHg 81%
08:00 +19°C° 0 mm 2 mps 748 mmHg 75%
09:00 +21°C° 0 mm 3 mps 748 mmHg 70%
10:00 +22°C° 0 mm 3 mps 748 mmHg 66%
11:00 +24°C° 0 mm 3 mps 748 mmHg 62%
12:00 +25°C° 0 mm 3 mps 748 mmHg 58%
13:00 +26°C° 0 mm 3 mps 747 mmHg 57%
14:00 +26°C° 0 mm 3 mps 747 mmHg 55%
15:00 +27°C° 0 mm 3 mps 747 mmHg 54%
16:00 +26°C° 0 mm 3 mps 747 mmHg 58%
17:00 +26°C° 0 mm 3 mps 746 mmHg 63%
18:00 +25°C° 0 mm 2 mps 746 mmHg 68%
19:00 +24°C° 0 mm 2 mps 746 mmHg 72%
20:00 +23°C° 0 mm 2 mps 746 mmHg 75%
21:00 +20°C° 0 mm 2 mps 746 mmHg 79%
22:00 +19°C° 0 mm 2 mps 746 mmHg 81%
23:00 +19°C° 0 mm 2 mps 746 mmHg 83%

21 June, Monday

Time Temperature Precipitation Wind Pressure Humidity
00:00 +18°C° 0 mm 2 mps 746 mmHg 85%
01:00 +18°C° 0 mm 2 mps 746 mmHg 86%
02:00 +17°C° 0 mm 2 mps 746 mmHg 88%
03:00 +17°C° 0 mm 2 mps 746 mmHg 90%
04:00 +17°C° 0 mm 2 mps 746 mmHg 89%
05:00 +18°C° 0 mm 2 mps 746 mmHg 88%
06:00 +18°C° 0 mm 2 mps 746 mmHg 88%
07:00 +20°C° 0 mm 3 mps 746 mmHg 83%
08:00 +22°C° 0 mm 4 mps 746 mmHg 78%
09:00 +23°C° 0 mm 4 mps 746 mmHg 73%
10:00 +25°C° 0 mm 4 mps 746 mmHg 69%
11:00 +26°C° 0 mm 4 mps 745 mmHg 65%
12:00 +27°C° 0 mm 4 mps 745 mmHg 61%
13:00 +28°C° 0 mm 4 mps 745 mmHg 60%
14:00 +28°C° 0 mm 4 mps 745 mmHg 59%
15:00 +29°C° 0 mm 4 mps 745 mmHg 59%
16:00 +29°C° 0 mm 4 mps 745 mmHg 62%
17:00 +28°C° 0 mm 4 mps 745 mmHg 65%
18:00 +28°C° 0 mm 3 mps 745 mmHg 69%
19:00 +26°C° 0 mm 3 mps 745 mmHg 74%
20:00 +25°C° 0 mm 3 mps 745 mmHg 80%
21:00 +22°C° 0 mm 3 mps 745 mmHg 85%
22:00 +21°C° 0 mm 3 mps 745 mmHg 86%
23:00 +21°C° 0 mm 3 mps 745 mmHg 88%

22 June, Tuesday

Time Temperature Precipitation Wind Pressure Humidity
00:00 +20°C° 0 mm 3 mps 745 mmHg 90%
01:00 +20°C° 0 mm 3 mps 745 mmHg 90%
02:00 +19°C° 0 mm 3 mps 745 mmHg 90%
03:00 +19°C° 0 mm 2 mps 745 mmHg 91%
04:00 +19°C° 0 mm 2 mps 745 mmHg 90%
05:00 +20°C° 0 mm 2 mps 745 mmHg 89%
06:00 +20°C° 0 mm 2 mps 745 mmHg 88%
07:00 +22°C° 0 mm 3 mps 745 mmHg 82%
08:00 +24°C° 0 mm 3 mps 745 mmHg 76%
09:00 +26°C° 0 mm 4 mps 745 mmHg 71%
10:00 +27°C° 0 mm 4 mps 745 mmHg 66%
11:00 +28°C° 0 mm 4 mps 745 mmHg 62%
12:00 +29°C° 0 mm 4 mps 745 mmHg 57%
13:00 +29°C° 0 mm 4 mps 745 mmHg 56%
14:00 +30°C° 0 mm 4 mps 745 mmHg 54%
15:00 +30°C° 0 mm 3 mps 745 mmHg 52%
16:00 +30°C° 0 mm 3 mps 745 mmHg 57%
17:00 +29°C° 0 mm 3 mps 745 mmHg 62%
18:00 +29°C° 0 mm 2 mps 745 mmHg 67%
19:00 +27°C° 0 mm 2 mps 745 mmHg 71%
20:00 +26°C° 0 mm 3 mps 745 mmHg 76%
21:00 +24°C° 0 mm 3 mps 744 mmHg 81%
22:00 +22°C° 0 mm 3 mps 744 mmHg 82%
23:00 +23°C° 0 mm 2 mps 744 mmHg 83%

23 June, Wednesday

Time Temperature Precipitation Wind Pressure Humidity
00:00 +21°C° 0 mm 2 mps 744 mmHg 84%
01:00 +21°C° 0 mm 2 mps 745 mmHg 85%
02:00 +20°C° 0 mm 2 mps 745 mmHg 85%
03:00 +20°C° 0 mm 2 mps 745 mmHg 86%
04:00 +20°C° 0 mm 2 mps 745 mmHg 86%
05:00 +21°C° 0 mm 2 mps 745 mmHg 85%
06:00 +21°C° 0 mm 2 mps 745 mmHg 85%
07:00 +24°C° 0 mm 2 mps 745 mmHg 81%
08:00 +26°C° 0 mm 3 mps 745 mmHg 76%
09:00 +27°C° 0 mm 3 mps 745 mmHg 71%
10:00 +28°C° 0 mm 3 mps 745 mmHg 67%
11:00 +29°C° 0 mm 3 mps 745 mmHg 63%
12:00 +30°C° 0 mm 3 mps 745 mmHg 58%
13:00 +30°C° 0 mm 3 mps 745 mmHg 57%
14:00 +31°C° 0 mm 3 mps 745 mmHg 55%
15:00 +31°C° 0 mm 3 mps 745 mmHg 53%
16:00 +31°C° 0 mm 3 mps 745 mmHg 57%
17:00 +30°C° 0 mm 2 mps 745 mmHg 60%
18:00 +30°C° 0 mm 2 mps 745 mmHg 64%
19:00 +28°C° 0 mm 2 mps 745 mmHg 68%
20:00 +27°C° 0 mm 2 mps 745 mmHg 73%
21:00 +25°C° 0 mm 2 mps 745 mmHg 77%
22:00 +24°C° 0 mm 2 mps 745 mmHg 78%
23:00 +24°C° 0 mm 2 mps 745 mmHg 79%
Show more